Time,TemperatureF,DewpointF,PressureIn,WindDirection,WindDirectionDegrees,WindSpeedMPH,WindSpeedGustMPH,Humidity,HourlyPrecipIn,Conditions,Clouds,dailyrainin,SoftwareType,DateUTC
2013-10-27 00:01:00,45.9,42.5,30.02,WSW,254,0.0,0.0,88,0.00,,,0.00,VWS V14.01,2013-10-27 07:01:00,
2013-10-27 00:10:00,45.7,42.4,30.02,WSW,254,0.0,0.0,88,0.00,,,0.00,VWS V14.01,2013-10-27 07:10:00,
2013-10-27 00:20:00,45.4,42.1,30.02,WSW,254,0.0,0.0,88,0.00,,,0.00,VWS V14.01,2013-10-27 07:20:00,
2013-10-27 00:31:00,45.1,41.8,30.02,WSW,254,0.0,0.0,88,0.00,,,0.00,VWS V14.01,2013-10-27 07:31:00,
2013-10-27 00:40:00,45.1,42.1,30.02,WSW,254,0.0,0.0,89,0.00,,,0.00,VWS V14.01,2013-10-27 07:40:00,
2013-10-27 00:50:00,45.1,42.1,30.02,WSW,254,0.0,0.0,89,0.00,,,0.00,VWS V14.01,2013-10-27 07:50:00,
2013-10-27 01:01:00,45.1,42.3,30.02,WSW,254,0.0,0.0,90,0.00,,,0.00,VWS V14.01,2013-10-27 08:01:00,
2013-10-27 01:10:00,45.0,42.2,30.02,WSW,254,0.0,0.0,90,0.00,,,0.00,VWS V14.01,2013-10-27 08:10:00,
2013-10-27 01:20:00,44.8,42.0,30.01,WSW,254,0.0,0.0,90,0.00,,,0.00,VWS V14.01,2013-10-27 08:20:00,
2013-10-27 01:31:00,44.6,41.8,30.01,WSW,254,0.0,0.0,90,0.00,,,0.00,VWS V14.01,2013-10-27 08:31:00,
2013-10-27 01:40:00,44.6,42.1,30.01,WSW,254,0.0,0.0,91,0.00,,,0.00,VWS V14.01,2013-10-27 08:40:00,
2013-10-27 01:50:00,44.4,41.9,30.01,WSW,254,0.0,0.0,91,0.00,,,0.00,VWS V14.01,2013-10-27 08:50:00,
2013-10-27 02:01:00,44.2,41.7,30.01,WSW,254,0.0,0.0,91,0.00,,,0.00,VWS V14.01,2013-10-27 09:01:00,
2013-10-27 02:10:00,44.0,41.5,30.01,WSW,254,0.0,0.0,91,0.00,,,0.00,VWS V14.01,2013-10-27 09:10:00,
2013-10-27 02:20:00,43.8,41.3,30.00,WSW,254,0.0,0.0,91,0.00,,,0.00,VWS V14.01,2013-10-27 09:20:00,
2013-10-27 02:31:00,43.5,41.0,30.00,WSW,254,0.0,0.0,91,0.00,,,0.00,VWS V14.01,2013-10-27 09:31:00,
2013-10-27 02:40:00,43.4,41.0,30.00,WSW,254,0.0,0.0,91,0.00,,,0.00,VWS V14.01,2013-10-27 09:40:00,
2013-10-27 02:50:00,43.3,40.8,30.00,WSW,254,0.0,0.0,91,0.00,,,0.00,VWS V14.01,2013-10-27 09:50:00,
2013-10-27 03:01:00,43.2,41.0,30.00,WSW,254,0.0,0.0,92,0.00,,,0.00,VWS V14.01,2013-10-27 10:01:00,
2013-10-27 03:10:00,43.1,40.9,30.00,WSW,254,0.0,0.0,92,0.00,,,0.00,VWS V14.01,2013-10-27 10:10:00,
2013-10-27 03:20:00,42.8,40.6,29.99,WSW,254,0.0,0.0,92,0.00,,,0.00,VWS V14.01,2013-10-27 10:20:00,
2013-10-27 03:31:00,42.6,40.4,29.99,WSW,254,0.0,0.0,92,0.00,,,0.00,VWS V14.01,2013-10-27 10:31:00,
2013-10-27 03:40:00,42.4,40.2,29.99,WSW,254,0.0,0.0,92,0.00,,,0.00,VWS V14.01,2013-10-27 10:40:00,
2013-10-27 03:50:00,42.4,40.2,29.98,WSW,254,0.0,0.0,92,0.00,,,0.00,VWS V14.01,2013-10-27 10:50:00,
2013-10-27 04:01:00,42.5,40.3,29.98,WSW,254,0.0,0.0,92,0.00,,,0.00,VWS V14.01,2013-10-27 11:01:00,
2013-10-27 04:10:00,42.8,40.9,29.98,WSW,254,0.0,0.0,93,0.00,,,0.00,VWS V14.01,2013-10-27 11:10:00,
2013-10-27 04:20:00,43.1,41.2,29.98,WSW,254,0.0,0.0,93,0.00,,,0.00,VWS V14.01,2013-10-27 11:20:00,
2013-10-27 04:31:00,43.5,41.6,29.97,WSW,254,0.0,0.0,93,0.00,,,0.00,VWS V14.01,2013-10-27 11:31:00,
2013-10-27 04:40:00,43.9,42.0,29.98,WSW,254,0.0,0.0,93,0.00,,,0.00,VWS V14.01,2013-10-27 11:40:00,
2013-10-27 04:50:00,44.3,42.4,29.97,WSW,254,0.0,0.0,93,0.00,,,0.00,VWS V14.01,2013-10-27 11:50:00,
2013-10-27 05:01:00,44.6,43.0,29.97,WSW,254,0.0,0.0,94,0.00,,,0.00,VWS V14.01,2013-10-27 12:01:00,
2013-10-27 05:10:00,44.9,43.3,29.97,WSW,254,0.0,0.0,94,0.00,,,0.00,VWS V14.01,2013-10-27 12:10:00,
2013-10-27 05:20:00,45.1,43.5,29.97,WSW,254,0.0,0.0,94,0.00,,,0.00,VWS V14.01,2013-10-27 12:20:00,
2013-10-27 05:31:00,45.2,43.6,29.97,WSW,254,0.0,0.0,94,0.00,,,0.00,VWS V14.01,2013-10-27 12:31:00,
2013-10-27 05:40:00,45.2,43.6,29.97,WSW,254,0.0,0.0,94,0.00,,,0.00,VWS V14.01,2013-10-27 12:40:00,
2013-10-27 05:50:00,45.6,44.0,29.97,WSW,254,0.0,0.0,94,0.00,,,0.00,VWS V14.01,2013-10-27 12:50:00,
2013-10-27 06:01:00,46.0,44.4,29.97,WSW,254,0.0,0.0,94,0.00,,,0.00,VWS V14.01,2013-10-27 13:01:00,
2013-10-27 06:10:00,46.2,44.6,29.97,WSW,254,0.0,0.0,94,0.00,,,0.00,VWS V14.01,2013-10-27 13:10:00,
2013-10-27 06:20:00,46.3,44.7,29.97,WSW,254,0.0,0.0,94,0.00,,,0.00,VWS V14.01,2013-10-27 13:20:00,
2013-10-27 06:31:00,46.4,44.8,29.96,WSW,254,0.0,1.3,94,0.00,,,0.00,VWS V14.01,2013-10-27 13:31:00,
2013-10-27 06:40:00,46.5,44.9,29.96,WSW,254,0.0,0.0,94,0.00,,,0.00,VWS V14.01,2013-10-27 13:40:00,
2013-10-27 06:50:00,46.5,44.9,29.95,WSW,254,0.0,0.0,94,0.00,,,0.00,VWS V14.01,2013-10-27 13:50:00,
2013-10-27 07:01:00,46.5,44.9,29.95,WSW,254,0.0,0.0,94,0.00,,,0.00,VWS V14.01,2013-10-27 14:01:00,
2013-10-27 07:10:00,46.5,44.9,29.95,WSW,254,0.0,0.0,94,0.00,,,0.00,VWS V14.01,2013-10-27 14:10:00,
2013-10-27 07:20:00,46.5,44.9,29.95,WSW,254,0.0,0.0,94,0.00,,,0.00,VWS V14.01,2013-10-27 14:20:00,
2013-10-27 07:31:00,46.6,45.0,29.95,WSW,254,0.0,0.0,94,0.00,,,0.00,VWS V14.01,2013-10-27 14:31:00,
2013-10-27 07:40:00,46.7,45.1,29.95,WSW,254,0.0,0.0,94,0.00,,,0.00,VWS V14.01,2013-10-27 14:40:00,
2013-10-27 07:50:00,46.8,45.5,29.95,WSW,254,0.0,0.0,95,0.00,,,0.00,VWS V14.01,2013-10-27 14:50:00,
2013-10-27 08:01:00,46.9,45.5,29.95,WSW,254,0.0,0.0,95,0.00,,,0.00,VWS V14.01,2013-10-27 15:01:00,
2013-10-27 08:10:00,47.0,45.7,29.95,WSW,254,0.0,0.0,95,0.00,,,0.00,VWS V14.01,2013-10-27 15:10:00,
2013-10-27 08:20:00,47.1,45.7,29.94,WSW,254,0.0,0.0,95,0.00,,,0.00,VWS V14.01,2013-10-27 15:20:00,
2013-10-27 08:31:00,47.3,45.9,29.95,WSW,254,0.0,0.0,95,0.00,,,0.00,VWS V14.01,2013-10-27 15:31:00,
2013-10-27 08:40:00,47.4,46.0,29.95,WSW,254,0.0,0.0,95,0.00,,,0.00,VWS V14.01,2013-10-27 15:40:00,
2013-10-27 08:50:00,47.5,46.1,29.95,WSW,254,0.0,0.0,95,0.00,,,0.00,VWS V14.01,2013-10-27 15:50:00,
2013-10-27 09:01:00,47.7,46.3,29.95,WSW,254,0.0,0.0,95,0.00,,,0.00,VWS V14.01,2013-10-27 16:01:00,
2013-10-27 09:10:00,47.8,46.4,29.95,WSW,254,0.0,0.0,95,0.00,,,0.00,VWS V14.01,2013-10-27 16:10:00,
2013-10-27 09:20:00,48.0,46.6,29.95,WSW,254,0.0,0.0,95,0.00,,,0.00,VWS V14.01,2013-10-27 16:20:00,
2013-10-27 09:31:00,48.1,46.7,29.94,WSW,254,0.0,0.0,95,0.00,,,0.00,VWS V14.01,2013-10-27 16:31:00,
2013-10-27 09:40:00,48.3,46.9,29.94,WSW,254,0.0,0.0,95,0.00,,,0.00,VWS V14.01,2013-10-27 16:40:00,
2013-10-27 09:50:00,48.3,46.9,29.93,WSW,254,0.0,0.0,95,0.00,,,0.00,VWS V14.01,2013-10-27 16:50:00,
2013-10-27 10:01:00,48.5,47.1,29.93,WSW,254,0.0,0.0,95,0.00,,,0.00,VWS V14.01,2013-10-27 17:01:00,
2013-10-27 10:10:00,48.6,47.2,29.93,WSW,254,0.0,0.0,95,0.00,,,0.00,VWS V14.01,2013-10-27 17:10:00,
2013-10-27 10:20:00,48.6,47.2,29.93,WSW,249,0.0,3.9,95,0.00,,,0.00,VWS V14.01,2013-10-27 17:20:00,
2013-10-27 10:31:00,48.7,47.3,29.93,SW,232,0.0,1.3,95,0.00,,,0.00,VWS V14.01,2013-10-27 17:31:00,
2013-10-27 10:40:00,49.0,47.6,29.92,SW,232,0.0,1.3,95,0.00,,,0.00,VWS V14.01,2013-10-27 17:40:00,
2013-10-27 10:50:00,49.3,47.9,29.92,SW,232,0.0,0.0,95,0.00,,,0.00,VWS V14.01,2013-10-27 17:50:00,
2013-10-27 11:01:00,49.7,48.6,29.92,SW,232,0.0,3.9,96,0.00,,,0.00,VWS V14.01,2013-10-27 18:01:00,
2013-10-27 11:10:00,49.8,48.7,29.91,WSW,244,1.3,6.5,96,0.00,,,0.00,VWS V14.01,2013-10-27 18:10:00,
2013-10-27 11:20:00,50.0,48.6,29.91,WSW,252,0.0,6.5,95,0.00,,,0.00,VWS V14.01,2013-10-27 18:20:00,
2013-10-27 11:31:00,50.5,49.4,29.90,WSW,254,0.0,6.5,96,0.00,,,0.00,VWS V14.01,2013-10-27 18:31:00,
2013-10-27 11:40:00,50.8,49.4,29.90,WSW,254,0.0,2.6,95,0.00,,,0.00,VWS V14.01,2013-10-27 18:40:00,
2013-10-27 11:50:00,51.1,50.0,29.90,ESE,117,0.0,3.9,96,0.00,,,0.00,VWS V14.01,2013-10-27 18:50:00,
2013-10-27 12:02:00,52.0,50.9,29.89,West,266,0.0,5.2,96,0.00,,,0.00,VWS V14.01,2013-10-27 19:02:00,
2013-10-27 12:10:00,52.6,51.2,29.89,WSW,257,0.0,6.5,95,0.00,,,0.00,VWS V14.01,2013-10-27 19:10:00,
2013-10-27 12:20:00,53.5,51.8,29.88,West,267,0.0,10.4,94,0.00,,,0.00,VWS V14.01,2013-10-27 19:20:00,
2013-10-27 12:31:00,55.3,52.7,29.88,ESE,113,2.6,9.1,91,0.00,,,0.00,VWS V14.01,2013-10-27 19:31:00,
2013-10-27 12:40:00,57.7,52.9,29.86,South,185,1.3,9.1,84,0.00,,,0.00,VWS V14.01,2013-10-27 19:40:00,
2013-10-27 12:50:00,59.6,52.0,29.85,SSE,153,1.3,7.8,76,0.00,,,0.00,VWS V14.01,2013-10-27 19:50:00,
2013-10-27 13:01:00,60.2,51.2,29.84,ESE,121,0.0,7.8,72,0.00,,,0.00,VWS V14.01,2013-10-27 20:01:00,
2013-10-27 13:10:00,60.5,50.7,29.83,West,274,10.4,10.4,70,0.00,,,0.00,VWS V14.01,2013-10-27 20:10:00,
2013-10-27 13:20:00,61.7,51.0,29.83,SW,232,6.5,13.0,68,0.00,,,0.00,VWS V14.01,2013-10-27 20:20:00,
2013-10-27 13:31:00,62.1,51.4,29.82,SW,229,0.0,9.1,68,0.00,,,0.00,VWS V14.01,2013-10-27 20:31:00,
2013-10-27 13:40:00,63.1,51.6,29.82,West,266,3.9,9.1,66,0.00,,,0.00,VWS V14.01,2013-10-27 20:40:00,
2013-10-27 13:50:00,62.9,50.5,29.81,SW,219,0.0,11.7,64,0.00,,,0.00,VWS V14.01,2013-10-27 20:50:00,
2013-10-27 14:01:00,62.3,50.4,29.81,East,89,0.0,13.0,65,0.00,,,0.00,VWS V14.01,2013-10-27 21:01:00,
2013-10-27 14:10:00,62.0,49.7,29.80,WSW,241,0.0,16.9,64,0.00,,,0.00,VWS V14.01,2013-10-27 21:10:00,
2013-10-27 14:20:00,61.1,48.4,29.80,SSE,153,0.0,13.0,63,0.00,,,0.00,VWS V14.01,2013-10-27 21:20:00,
2013-10-27 14:31:00,60.3,48.5,29.79,WSW,238,7.8,14.3,65,0.00,,,0.00,VWS V14.01,2013-10-27 21:31:00,
2013-10-27 14:40:00,59.8,48.0,29.78,SSW,200,2.6,14.3,65,0.00,,,0.00,VWS V14.01,2013-10-27 21:40:00,
2013-10-27 14:50:00,59.3,48.4,29.77,WNW,286,19.5,19.5,67,0.00,,,0.00,VWS V14.01,2013-10-27 21:50:00,
2013-10-27 15:01:00,58.8,48.3,29.77,WSW,257,0.0,23.4,68,0.00,,,0.00,VWS V14.01,2013-10-27 22:01:00,
2013-10-27 15:10:00,58.4,47.9,29.77,SSW,212,2.6,16.9,68,0.00,,,0.00,VWS V14.01,2013-10-27 22:10:00,
2013-10-27 15:20:00,58.0,48.3,29.77,West,264,7.8,19.5,70,0.00,,,0.00,VWS V14.01,2013-10-27 22:20:00,
2013-10-27 15:31:00,58.0,48.7,29.76,SW,214,5.2,14.3,71,0.00,,,0.00,VWS V14.01,2013-10-27 22:31:00,
2013-10-27 15:40:00,57.6,48.3,29.76,WSW,251,5.2,18.2,71,0.00,,,0.00,VWS V14.01,2013-10-27 22:40:00,
2013-10-27 15:50:00,57.3,48.4,29.76,SW,229,0.0,9.1,72,0.00,,,0.00,VWS V14.01,2013-10-27 22:50:00,
2013-10-27 16:01:00,57.1,48.2,29.75,WSW,251,2.6,11.7,72,0.00,,,0.00,VWS V14.01,2013-10-27 23:01:00,
2013-10-27 16:10:00,57.1,48.5,29.75,SW,217,1.3,10.4,73,0.00,,,0.00,VWS V14.01,2013-10-27 23:10:00,
2013-10-27 16:20:00,57.0,48.4,29.74,SE,144,0.0,11.7,73,0.00,,,0.00,VWS V14.01,2013-10-27 23:20:00,
2013-10-27 16:31:00,56.9,48.3,29.74,WSW,244,1.3,11.7,73,0.00,,,0.00,VWS V14.01,2013-10-27 23:31:00,
2013-10-27 16:40:00,57.0,48.4,29.73,SW,234,7.8,11.7,73,0.00,,,0.00,VWS V14.01,2013-10-27 23:40:00,
2013-10-27 16:50:00,57.0,48.1,29.72,WSW,238,0.0,16.9,72,0.00,,,0.00,VWS V14.01,2013-10-27 23:50:00,
2013-10-27 17:01:00,57.0,48.1,29.72,WSW,248,1.3,6.5,72,0.00,,,0.00,VWS V14.01,2013-10-28 00:01:00,
2013-10-27 17:10:00,57.2,47.9,29.71,WSW,247,7.8,13.0,71,0.00,,,0.00,VWS V14.01,2013-10-28 00:10:00,
2013-10-27 17:20:00,57.2,47.9,29.70,SW,215,7.8,18.2,71,0.00,,,0.00,VWS V14.01,2013-10-28 00:20:00,
2013-10-27 17:31:00,56.2,47.7,29.69,SSW,205,7.8,16.9,73,0.00,,,0.00,VWS V14.01,2013-10-28 00:31:00,
2013-10-27 17:40:00,55.4,47.3,29.69,WSW,245,6.5,11.7,74,0.00,,,0.00,VWS V14.01,2013-10-28 00:40:00,
2013-10-27 17:50:00,54.8,47.4,29.68,West,262,5.2,15.6,76,0.00,,,0.00,VWS V14.01,2013-10-28 00:50:00,
2013-10-27 18:01:00,54.2,47.5,29.68,SW,232,6.5,16.9,78,0.00,,,0.00,VWS V14.01,2013-10-28 01:01:00,
2013-10-27 18:10:00,53.7,47.3,29.68,West,273,5.2,9.1,79,0.00,,,0.00,VWS V14.01,2013-10-28 01:10:00,
2013-10-27 18:20:00,53.2,47.2,29.68,WSW,242,1.3,10.4,80,0.00,,,0.00,VWS V14.01,2013-10-28 01:20:00,
2013-10-27 18:31:00,52.9,46.9,29.67,WSW,254,0.0,5.2,80,0.00,,,0.00,VWS V14.01,2013-10-28 01:31:00,
2013-10-27 18:40:00,52.5,46.8,29.67,WSW,254,7.8,18.2,81,0.00,,,0.00,VWS V14.01,2013-10-28 01:40:00,
2013-10-27 18:50:00,52.3,47.0,29.67,SW,224,0.0,10.4,82,0.00,,,0.00,VWS V14.01,2013-10-28 01:50:00,
2013-10-27 19:01:00,52.3,47.3,29.67,South,188,9.1,14.3,83,0.00,,,0.00,VWS V14.01,2013-10-28 02:01:00,
2013-10-27 19:10:00,52.2,47.5,29.66,West,277,7.8,10.4,84,0.00,,,0.00,VWS V14.01,2013-10-28 02:10:00,
2013-10-27 19:20:00,52.1,47.4,29.66,WSW,246,2.6,13.0,84,0.00,,,0.00,VWS V14.01,2013-10-28 02:20:00,
2013-10-27 19:31:00,52.3,47.6,29.67,SW,227,0.0,11.7,84,0.00,,,0.00,VWS V14.01,2013-10-28 02:31:00,
2013-10-27 19:40:00,52.4,47.7,29.66,WSW,240,3.9,14.3,84,0.00,,,0.00,VWS V14.01,2013-10-28 02:40:00,
2013-10-27 19:50:00,52.3,47.6,29.65,SW,217,0.0,19.5,84,0.00,,,0.00,VWS V14.01,2013-10-28 02:50:00,
2013-10-27 20:01:00,52.2,47.8,29.64,WSW,241,0.0,11.7,85,0.00,,,0.00,VWS V14.01,2013-10-28 03:01:00,
2013-10-27 20:10:00,52.1,47.7,29.64,WSW,241,0.0,10.4,85,0.00,,,0.00,VWS V14.01,2013-10-28 03:10:00,
2013-10-27 20:20:00,52.1,47.7,29.64,SSW,207,0.0,7.8,85,0.00,,,0.00,VWS V14.01,2013-10-28 03:20:00,
2013-10-27 20:31:00,51.9,47.5,29.64,WSW,254,3.9,10.4,85,0.00,,,0.00,VWS V14.01,2013-10-28 03:31:00,
2013-10-27 20:40:00,51.8,47.4,29.63,WSW,245,0.0,16.9,85,0.00,,,0.00,VWS V14.01,2013-10-28 03:40:00,
2013-10-27 20:50:00,51.7,47.0,29.64,SW,233,0.0,13.0,84,0.00,,,0.00,VWS V14.01,2013-10-28 03:50:00,
2013-10-27 21:01:00,51.8,46.5,29.64,West,259,3.9,13.0,82,0.00,,,0.00,VWS V14.01,2013-10-28 04:01:00,
2013-10-27 21:10:00,52.0,46.4,29.64,WSW,237,0.0,6.5,81,0.00,,,0.00,VWS V14.01,2013-10-28 04:10:00,
2013-10-27 21:20:00,52.0,45.7,29.64,SW,215,0.0,6.5,79,0.00,,,0.00,VWS V14.01,2013-10-28 04:20:00,
2013-10-27 21:31:00,51.9,45.6,29.63,WSW,240,0.0,6.5,79,0.00,,,0.00,VWS V14.01,2013-10-28 04:31:00,
2013-10-27 21:40:00,51.8,45.2,29.63,SW,227,2.6,7.8,78,0.00,,,0.00,VWS V14.01,2013-10-28 04:40:00,
2013-10-27 21:50:00,51.8,45.2,29.63,WSW,239,0.0,7.8,78,0.00,,,0.00,VWS V14.01,2013-10-28 04:50:00,
2013-10-27 22:01:00,51.6,45.3,29.64,WSW,242,0.0,6.5,79,0.00,,,0.00,VWS V14.01,2013-10-28 05:01:00,
2013-10-27 22:10:00,51.4,45.1,29.63,WSW,242,0.0,1.3,79,0.00,,,0.00,VWS V14.01,2013-10-28 05:10:00,
2013-10-27 22:20:00,51.0,44.7,29.64,WSW,242,0.0,0.0,79,0.00,,,0.00,VWS V14.01,2013-10-28 05:20:00,
2013-10-27 22:31:00,50.7,44.4,29.64,WSW,242,2.6,2.6,79,0.00,,,0.00,VWS V14.01,2013-10-28 05:31:00,
2013-10-27 22:40:00,50.3,44.0,29.64,WSW,242,0.0,3.9,79,0.00,,,0.00,VWS V14.01,2013-10-28 05:40:00,
2013-10-27 22:50:00,49.9,43.7,29.65,WSW,242,0.0,0.0,79,0.00,,,0.00,VWS V14.01,2013-10-28 05:50:00,
2013-10-27 23:01:00,49.3,43.4,29.66,WSW,242,0.0,1.3,80,0.00,,,0.00,VWS V14.01,2013-10-28 06:01:00,
2013-10-27 23:10:00,48.9,43.3,29.66,WSW,242,0.0,2.6,81,0.00,,,0.00,VWS V14.01,2013-10-28 06:10:00,
2013-10-27 23:20:00,48.5,43.0,29.65,WSW,242,0.0,0.0,81,0.00,,,0.00,VWS V14.01,2013-10-28 06:20:00,
2013-10-27 23:31:00,48.1,42.5,29.66,WSW,242,0.0,0.0,81,0.00,,,0.00,VWS V14.01,2013-10-28 06:31:00,
2013-10-27 23:40:00,47.7,42.2,29.66,WSW,242,0.0,0.0,81,0.00,,,0.00,VWS V14.01,2013-10-28 06:40:00,
2013-10-27 23:50:00,47.3,41.8,29.66,WSW,242,0.0,0.0,81,0.00,,,0.00,VWS V14.01,2013-10-28 06:50:00,